KT4FD Weather Reports


time (UTC)temp
F
wind
direction
speed
knots
gust
knots
rain 1hr
in
rain 24hr
in
rain mn
in
humidity
%
barometer
mb
20260831140003 75 355 0.0 1.7 0.00 0.00 0.00 88 1023.1
20260831135004 74 355 0.0 0.0 0.00 0.00 0.00 90 1023.1
20260831134003 73 355 0.0 0.0 0.00 0.00 0.00 91 1023.1
20260831133004 72 355 0.0 0.9 0.00 0.00 0.00 91 1023.2
20260831132003 72 355 0.0 1.7 0.00 0.00 0.00 90 1023.2
20260831131004 71 350 0.0 0.9 0.00 0.00 0.00 91 1023.4
20260831130004 70 351 0.0 1.7 0.00 0.00 0.00 91 1023.4
20260831125004 69 351 0.0 0.9 0.00 0.00 0.00 91 1023.1
20260831124004 69 351 0.0 0.0 0.00 0.00 0.00 91 1023.1
20260831123003 68 351 0.0 0.0 0.00 0.00 0.00 91 1023.0
20260831122004 68 351 0.0 0.0 0.00 0.00 0.00 91 1022.9
20260831111004 67 351 0.0 0.0 0.00 0.00 0.00 91 1022.5
20260831110003 67 351 0.0 0.9 0.00 0.00 0.00 91 1022.4
20260831105004 67 351 0.0 0.0 0.00 0.00 0.00 91 1022.1
20260831104003 67 351 0.0 0.0 0.00 0.00 0.00 92 1022.1
20260831103003 67 351 0.0 0.0 0.00 0.00 0.00 91 1022.1
20260831102004 68 351 0.0 0.0 0.00 0.00 0.00 91 1022.0
20260831091003 68 350 0.0 0.0 0.00 0.00 0.00 91 1022.0
20260831090004 68 350 0.0 0.0 0.00 0.00 0.00 92 1022.0
20260831085004 68 350 0.0 0.0 0.00 0.00 0.00 91 1021.8
20260831084004 68 351 0.0 0.0 0.00 0.00 0.00 91 1021.9
20260831083003 68 351 0.0 0.0 0.00 0.00 0.00 91 1021.7
20260831082004 69 351 0.0 0.0 0.00 0.00 0.00 91 1021.6
20260831020003 73 350 0.0 0.0 0.00 0.00 0.00 88 1022.1
20260831000003 81 351 0.0 0.0 0.00 0.00 0.00 76 1020.6
20260830235002 82 351 0.0 0.0 0.00 0.00 0.00 73 1020.6
20260830234002 83 351 0.0 0.0 0.00 0.00 0.00 71 1020.6
20260830233002 84 351 0.0 0.0 0.00 0.00 0.00 71 1020.6
20260830232002 85 351 0.0 0.0 0.00 0.00 0.00 69 1020.6
20260830231003 85 351 0.0 1.7 0.00 0.00 0.00 69 1020.6
20260830230002 85 351 0.0 1.7 0.00 0.00 0.00 67 1020.7
20260830225002 87 350 0.9 2.6 0.00 0.00 0.00 64 1020.8
20260830224002 87 350 0.0 2.6 0.00 0.00 0.00 65 1020.8
20260830223003 87 350 1.7 2.6 0.00 0.00 0.00 66 1020.7
20260830222002 87 350 0.9 4.3 0.00 0.00 0.00 65 1020.7
20260830221002 87 348 0.0 2.6 0.00 0.00 0.00 64 1020.7
20260830220003 87 348 0.9 2.6 0.00 0.00 0.00 65 1020.8
20260830215003 87 348 1.7 5.2 0.00 0.00 0.00 64 1020.7
20260830204003 85 5 0.9 2.6 0.00 0.00 0.00 70 1021.0
20260830203003 85 5 1.7 4.3 0.00 0.00 0.00 70 1021.0
20260830202002 84 11 1.7 2.6 0.00 0.00 0.00 70 1021.1
20260830201002 85 11 0.0 0.0 0.00 0.00 0.00 69 1021.1
20260830200002 85 11 0.0 2.6 0.00 0.00 0.00 69 1021.2
20260830195003 84 0 0.9 4.3 0.00 0.00 0.00 68 1021.4
20260830194003 84 0 2.6 4.3 0.00 0.00 0.00 69 1021.6
20260830193002 84 0 1.7 4.3 0.00 0.00 0.00 71 1021.7
20260830192002 84 0 2.6 7.8 0.00 0.00 0.00 69 1021.8
20260830191002 83 355 1.7 4.3 0.00 0.00 0.00 70 1021.8
20260830190002 83 355 1.7 5.2 0.00 0.00 0.00 72 1022.0
20260830185002 83 355 1.7 2.6 0.00 0.00 0.00 70 1022.1
20260830164002 80 339 0.9 4.3 0.00 0.00 0.00 78 1023.8
20260830163002 80 339 0.9 5.2 0.00 0.00 0.00 81 1024.0
20260830162002 79 324 1.7 5.2 0.00 0.00 0.00 80 1024.0
20260830161002 79 323 0.9 4.3 0.00 0.00 0.00 81 1024.1
20260830160002 78 332 0.9 5.2 0.00 0.00 0.00 83 1024.2
20260830155003 78 332 1.7 4.3 0.00 0.00 0.00 81 1024.3
20260830144002 76 328 0.0 0.9 0.00 0.00 0.00 86 1024.5
20260830143002 76 327 0.0 1.7 0.00 0.00 0.00 89 1024.3
20260830142003 75 327 0.9 4.3 0.00 0.00 0.00 90 1024.4
20260830141003 74 329 0.0 4.3 0.00 0.00 0.00 91 1024.5